Wind_Speed
13 12 12 11 12 12 12 13 13 13 13 13 14 15 17 18 21 10 6 8 6 9 6 5 9 15 15 3 8 7 2 8 9 3 7 13 11 8 10 7 5 6 17 25 33
13 12 13 13 13 13 13 13 13 14 14 14 15 16 17 19 13 10 11 8 6 7 5 8 9 11 3 4 4 3 4 9 9 4 13 15 14 13 12 13 14 22 22 32 31
14 13 14 14 14 15 15 15 15 15 15 15 15 17 18 16 4 4 11 6 7 8 7 9 8 9 13 9 3 2 6 4 3 7 11 8 10 11 18 11 19 25 23 22 25
14 14 15 16 16 16 16 16 15 15 15 15 15 17 18 2 4 4 9 5 9 9 1 16 10 8 3 8 6 4 13 14 2 2 8 6 5 9 13 12 20 21 21 18 18
15 14 16 17 17 18 16 15 15 15 15 14 15 16 6 3 6 11 9 7 9 8 8 4 7 5 6 9 8 17 21 21 8 3 6 9 3 5 18 17 18 20 20 17 16
15 16 16 17 18 18 16 16 16 16 15 14 13 13 2 5 9 12 11 10 11 13 13 13 9 14 11 12 16 15 31 13 11 8 7 9 5 6 17 19 17 16 17 17 16
16 17 17 17 18 18 18 17 17 16 15 12 10 8 4 10 4 10 12 11 10 14 10 13 9 20 9 14 15 25 7 3 5 10 5 9 5 4 20 19 18 16 13 15 15
18 18 18 18 19 20 19 18 17 15 13 10 9 2 7 8 13 15 12 16 18 19 23 18 18 6 6 6 9 5 5 5 9 6 12 11 5 9 21 21 19 18 17 16 13
19 18 18 19 20 21 19 19 15 13 10 8 5 4 8 6 11 17 18 17 20 22 22 18 11 8 6 4 5 3 4 5 4 7 5 7 5 10 16 20 19 19 17 17 15
20 19 19 20 21 22 20 15 11 10 6 5 9 6 9 9 11 19 17 16 11 8 8 9 6 5 3 3 5 6 3 6 4 5 4 4 5 15 15 21 21 19 18 16 16
22 21 20 19 20 22 21 5 3 2 6 9 7 7 9 18 23 14 17 13 10 8 8 10 5 5 9 10 15 18 5 6 8 6 3 7 7 10 17 13 19 19 19 18 17
24 22 21 20 19 21 10 4 8 11 8 15 20 18 29 15 5 7 13 7 7 8 10 9 9 11 10 12 10 11 10 9 6 7 4 8 9 10 14 10 20 21 21 20 17
27 24 21 19 19 13 9 13 14 15 5 10 14 10 16 7 8 10 11 8 9 9 13 9 14 13 10 7 7 7 7 5 3 8 7 7 10 2 10 8 25 12 22 22 23
30 25 22 21 8 8 7 13 9 13 4 7 9 14 16 6 12 14 14 9 7 12 15 10 12 15 10 7 4 7 10 8 7 6 4 4 10 2 0 19 17 14 10 22 23
31 27 20 17 15 6 12 12 10 7 3 8 9 6 12 13 2 10 19 8 10 12 7 11 12 12 10 8 6 7 13 7 7 7 8 10 3 2 2 3 11 15 17 20 25
31 27 20 5 10 14 18 16 14 1 7 5 6 6 8 11 17 15 8 7 8 11 14 13 15 10 8 8 5 6 8 7 7 4 5 18 7 4 2 9 9 19 15 12 22
31 27 21 11 6 6 10 7 1 4 2 8 7 10 8 8 11 9 8 10 7 3 7 11 14 13 14 9 6 5 7 5 5 4 7 6 3 6 16 14 10 4 10 10 16
31 24 16 21 15 9 13 2 5 10 11 7 10 13 10 12 13 15 12 9 10 11 7 6 9 14 14 11 11 8 8 5 7 4 8 9 5 7 9 12 8 7 10 9 8
28 10 7 15 14 8 1 4 6 7 14 9 3 4 9 11 11 13 14 11 9 12 11 7 13 17 17 11 16 11 6 10 4 6 5 6 11 6 2 7 6 8 9 9 8
19 6 16 9 10 9 2 6 7 10 17 9 6 6 6 8 8 11 12 14 16 15 9 9 10 11 17 7 8 9 5 2 4 4 7 7 8 6 6 4 5 6 6 6 7
5 3 9 23 18 1 4 7 9 14 16 4 7 10 12 10 7 6 10 10 12 18 17 11 6 9 6 6 7 6 3 3 6 5 5 4 6 6 12 10 10 7 9 9 7
8 3 20 18 3 3 6 6 6 19 20 9 1 7 9 9 7 8 9 6 13 8 3 3 3 6 11 9 7 8 9 7 5 8 5 4 6 12 14 5 6 5 8 5 5
4 3 14 18 4 8 10 17 19 19 17 11 5 5 7 8 7 7 10 11 11 6 3 6 4 5 10 8 7 4 5 4 5 4 5 3 3 15 19 18 19 3 10 9 9
3 3 3 3 7 9 9 10 13 17 17 7 7 9 9 7 7 6 8 11 14 8 1 4 2 4 5 9 6 8 11 7 2 2 1 4 1 8 12 16 19 21 17 19 19
3 3 4 2 4 10 9 11 16 14 10 5 2 5 9 7 8 8 9 10 15 6 3 4 5 7 9 11 17 11 14 10 6 6 7 5 4 4 6 10 8 11 16 20 16
4 4 6 8 11 12 9 9 15 16 10 6 8 8 10 6 4 5 6 6 5 10 8 5 7 8 7 10 13 18 12 11 9 8 4 4 3 2 6 9 10 8 10 8 5
11 11 4 8 9 8 7 9 11 9 11 10 6 4 4 7 8 8 9 9 8 6 8 6 3 4 3 8 9 6 8 5 9 5 3 1 1 1 3 6 8 3 5 10 12
Wind_Direction
1 353 347 340 337 335 334 333 328 327 325 325 323 327 329 324 318 290 239 248 254 249 259 250 230 245 243 187 84 109 144 277 263 76 125 105 110 120 152 112 128 150 140 144 154
0 352 347 343 339 335 335 331 327 325 322 321 324 328 329 330 327 247 232 240 226 229 240 248 323 272 287 67 91 129 202 217 233 168 132 139 145 156 126 110 82 118 130 144 151
357 353 347 343 339 334 333 330 325 321 322 321 326 327 329 334 290 222 207 219 198 203 225 335 354 54 29 335 61 226 224 292 338 120 117 123 158 169 129 132 132 136 143 152 154
352 348 342 339 336 331 329 326 324 321 318 321 325 326 332 24 15 144 156 161 180 196 97 52 35 65 92 258 138 291 271 262 172 10 113 33 105 108 107 143 136 139 146 156 159
351 344 340 337 333 330 327 323 320 317 315 321 321 332 341 247 251 157 156 167 187 192 129 114 77 63 191 233 290 266 264 263 144 147 127 48 329 326 113 128 132 139 149 163 167
348 342 338 336 332 328 321 318 317 311 310 314 320 335 332 270 133 152 164 188 201 212 192 165 222 144 234 238 207 222 233 232 169 169 143 143 255 115 126 123 129 144 156 171 178
343 339 335 333 330 325 317 312 310 305 304 308 316 339 268 242 172 204 189 216 240 251 264 230 154 160 214 262 233 247 303 338 226 171 140 123 331 167 137 135 143 154 166 177 183
340 334 332 330 327 322 315 310 306 298 297 299 308 317 253 284 205 202 217 236 235 245 259 275 278 273 216 265 328 317 217 187 244 182 153 161 212 154 149 147 156 167 172 181 191
337 336 332 328 324 320 313 309 301 293 290 290 306 203 264 208 206 216 197 221 235 237 248 261 270 237 311 46 353 278 261 279 184 174 168 184 173 182 165 157 167 171 178 178 188
344 337 330 326 324 320 315 307 298 290 290 268 263 316 252 235 212 215 209 224 254 270 256 237 239 217 343 102 241 251 214 267 227 210 195 238 223 182 185 168 174 173 177 181 184
344 337 329 324 321 321 323 332 312 305 236 215 203 231 294 217 239 192 204 213 243 281 275 271 239 221 221 220 247 271 263 263 168 137 154 276 300 221 195 185 175 178 177 182 184
346 336 327 321 317 314 307 262 272 326 297 229 253 251 266 264 179 220 211 196 221 245 263 275 251 247 212 217 251 284 300 303 253 154 142 256 252 256 171 199 181 183 182 182 178
346 339 328 320 313 298 244 246 297 312 291 273 235 231 248 217 225 223 188 203 236 252 256 256 267 285 188 242 297 270 261 300 0 333 335 325 318 290 97 81 280 185 190 181 181
346 339 331 326 311 318 256 319 292 309 297 261 197 226 242 212 245 249 209 185 216 246 271 269 282 296 266 240 214 282 295 339 353 23 298 341 300 4 292 181 254 250 187 183 184
342 337 329 319 302 298 344 345 331 299 296 161 182 192 191 209 42 204 238 191 225 252 248 265 277 291 293 275 311 287 302 7 353 341 321 290 296 226 56 277 267 249 235 197 184
336 332 323 332 288 274 321 311 303 301 245 148 130 168 175 211 236 260 218 217 205 239 273 276 292 296 286 322 335 306 310 358 323 281 294 273 230 243 78 232 232 240 184 184 176
329 324 303 255 225 346 333 311 291 232 274 150 171 165 197 216 224 241 249 215 199 247 273 281 270 275 277 298 283 297 348 333 324 316 242 279 60 217 205 230 217 207 133 114 165
326 314 287 257 248 290 289 321 250 276 268 188 156 164 176 203 212 210 233 244 205 216 260 254 277 250 247 221 221 213 190 180 262 279 291 307 263 265 200 216 232 139 124 128 141
330 317 260 276 221 219 263 214 222 218 355 -0 145 209 208 203 201 192 204 228 226 209 219 237 273 286 287 296 202 240 224 225 278 291 307 267 293 334 252 215 236 144 129 154 132
330 287 242 226 173 182 190 252 264 316 322 355 348 330 328 289 191 171 185 212 228 233 214 232 250 255 273 312 302 178 195 334 344 314 285 310 307 252 191 174 105 116 210 136 124
314 266 110 166 154 182 219 239 283 275 272 283 304 319 324 329 349 245 204 247 228 222 220 228 228 272 244 266 252 313 286 212 175 169 207 264 278 187 197 211 187 154 115 141 154
311 270 159 159 153 210 234 247 267 283 292 289 125 287 293 319 329 340 334 350 -0 345 8 241 211 249 234 251 267 245 260 209 162 264 239 213 260 344 342 211 19 31 104 94 30
301 277 174 183 219 228 251 244 244 268 277 282 231 217 270 296 321 333 327 328 339 329 59 352 347 360 343 330 291 329 338 331 318 222 236 198 329 354 19 15 9 47 143 114 96
276 279 166 200 252 260 276 282 276 234 255 285 358 352 328 322 312 311 316 309 312 337 189 59 297 203 232 252 290 311 308 300 84 64 291 178 252 5 7 18 11 16 25 40 38
232 279 38 289 259 237 248 278 296 299 242 188 227 285 279 300 313 301 296 295 296 295 224 167 239 275 289 294 298 293 297 309 271 220 143 293 33 4 30 61 40 58 37 34 31
325 353 332 291 298 316 207 240 266 288 297 253 163 214 258 244 263 304 346 333 267 327 339 288 250 234 262 267 277 290 302 311 347 357 33 53 327 190 -0 86 48 43 102 87 98
345 340 297 292 307 318 288 275 288 254 290 288 354 219 13 38 20 339 318 304 297 314 312 310 358 13 272 329 339 350 337 31 115 96 99 160 201 86 28 65 101 23 344 165 154
Height
801 799 798 796 794 791 789 787 784 782 780 778 776 775 774 772 770 768 765 760 760 763 763 763 764 759 755 761 765 774 815 813 788 773 762 743 754 743 741 750 748 749 760 770 779
802 799 797 795 793 791 789 786 783 781 779 777 776 775 773 771 767 764 755 758 760 760 763 766 764 757 756 766 771 785 802 791 748 738 750 743 744 745 751 755 759 761 765 772 778
802 800 797 795 792 789 788 785 782 780 778 776 775 774 772 771 769 753 752 756 757 760 763 768 765 763 788 781 780 792 790 751 743 733 729 737 738 731 751 766 759 765 769 771 777
802 800 797 794 791 788 786 784 781 778 777 776 775 773 771 771 779 751 753 754 757 759 765 767 766 780 799 789 769 791 756 752 732 725 732 748 732 741 742 753 749 757 764 772 777
802 799 796 793 790 787 784 782 780 777 775 775 773 772 771 771 760 751 752 753 756 758 765 763 770 786 798 784 783 796 769 743 726 726 738 729 744 748 746 743 748 756 764 771 776
801 799 796 792 789 785 783 781 779 776 774 774 773 772 772 775 748 749 751 753 754 757 763 766 757 773 779 776 784 745 760 731 726 728 737 742 745 741 745 742 751 757 765 768 772
801 798 794 791 788 784 781 779 777 774 773 773 773 772 771 760 749 749 750 750 752 752 752 758 757 767 763 766 744 737 748 733 734 726 739 737 759 748 741 742 752 757 762 765 767
800 796 793 789 786 782 779 776 774 772 772 772 771 772 769 745 746 748 748 749 749 749 748 747 751 753 758 750 749 750 747 774 733 727 729 735 774 741 734 742 752 754 755 760 762
799 795 791 788 784 780 776 774 771 770 770 770 771 770 762 743 744 744 744 746 744 743 742 743 744 751 750 776 785 761 787 770 748 720 726 736 758 734 729 737 746 747 750 751 755
797 794 790 786 782 777 774 771 769 768 768 769 770 774 748 741 737 739 741 743 741 738 741 743 749 762 782 782 808 781 780 761 763 733 725 738 742 728 722 731 737 740 742 746 749
795 791 788 785 780 776 772 769 770 770 768 761 752 747 732 731 732 735 738 740 741 744 765 746 769 776 763 758 758 757 753 755 737 720 732 742 738 731 720 725 732 733 735 739 742
795 789 785 782 779 775 774 773 761 759 766 745 742 740 732 731 737 733 735 748 751 769 753 761 775 741 736 743 746 749 756 757 730 722 733 739 742 722 719 719 720 725 728 730 735
792 788 784 779 776 773 771 766 761 758 768 744 732 736 730 726 736 734 730 739 754 764 759 770 750 727 733 742 750 753 758 751 749 732 726 737 751 731 721 736 724 714 712 716 723
791 786 781 777 776 772 768 761 760 759 790 754 737 727 726 724 740 721 723 735 748 765 755 755 730 733 736 742 738 768 731 734 741 758 789 739 793 742 736 735 720 710 715 711 714
789 784 781 778 774 772 765 761 761 760 827 726 727 709 716 735 723 726 718 729 754 754 752 762 746 745 748 740 728 753 728 738 742 761 767 760 784 757 736 745 732 714 705 706 703
788 783 779 777 774 766 765 762 761 798 810 735 721 729 736 731 729 723 727 720 725 747 743 747 723 731 734 722 723 723 737 741 747 765 802 760 769 771 752 739 724 712 690 690 697
784 780 777 776 770 766 765 763 799 809 722 740 740 730 740 745 742 736 743 750 766 781 781 756 746 726 720 742 726 734 765 813 818 814 809 752 763 755 722 706 703 699 695 692 694
778 773 770 766 767 768 767 782 811 756 740 708 718 727 747 738 741 739 748 760 743 754 773 785 788 742 720 735 751 751 763 809 825 824 797 753 778 751 710 697 690 690 690 690 692
773 768 765 758 762 769 775 802 779 748 724 725 716 734 743 728 730 738 747 751 740 738 773 778 771 721 714 712 719 746 767 743 777 771 795 773 749 714 705 702 697 701 695 694 692
772 768 758 757 760 766 782 787 757 731 728 722 748 733 749 735 735 739 745 728 731 718 720 745 775 734 715 706 708 726 719 772 784 816 822 785 775 766 725 711 702 697 700 697 691
772 767 747 754 759 769 789 772 749 728 724 732 742 747 744 743 731 732 734 717 709 711 709 725 747 750 721 736 744 741 750 744 760 780 810 812 790 718 720 710 702 693 693 694 693
776 773 749 753 773 769 775 757 740 736 723 725 724 736 744 737 742 742 738 722 701 704 723 715 737 765 747 714 705 717 733 740 783 786 774 776 774 731 713 697 694 695 691 691 695
784 765 749 750 777 770 754 747 739 737 730 728 729 725 726 741 757 737 729 707 704 708 726 722 753 782 769 738 716 726 722 723 734 741 767 788 785 725 718 717 706 698 694 696 697
786 770 750 749 746 754 757 751 743 720 723 719 729 727 737 742 733 742 737 714 707 713 713 713 741 762 789 768 743 749 731 720 732 766 765 777 764 749 737 734 729 719 715 709 714
779 765 761 761 753 750 748 746 745 738 715 715 729 735 744 758 750 749 735 730 714 710 711 723 757 746 742 734 727 734 732 726 734 736 759 754 755 752 740 744 742 739 734 731 732
781 779 767 765 746 742 742 747 741 729 727 728 734 730 733 747 745 753 742 739 737 724 728 720 755 742 751 731 728 733 726 722 721 724 744 734 742 734 731 728 737 740 740 743 744
787 783 777 763 753 752 744 736 730 723 719 714 719 725 731 734 728 728 725 725 727 733 739 738 746 757 765 741 743 760 736 733 745 737 738 755 744 741 743 732 738 742 738 737 738